Regional Weather Roundup
Issued by NWS Midland/Odessa, TX

Skip options and go directly to product.
Home | Oldest Version | Next Version | Current Version | All | Text Only | Save Text | Print | Product List | Glossary On

Skip product version selection by date and time.   
717
ASUS44 KMAF 250701
RWRMAF
MIDLAND AREA WEATHER ROUNDUP
NATIONAL WEATHER SERVICE MIDLAND TX
200 AM CDT SUN SEP 25 2016

...IN SOUTHWEST TEXAS AND SOUTHEAST NEW MEXICO...

CITY           SKY/WX    TMP DP  RH WIND       PRES   REMARKS
ALPINE         CLOUDY    65  57  75 S8        30.12F
ANDREWS        FAIR      67  61  79 S6        30.04R
ARTESIA        CLEAR     63  39  42 N10       30.04S
BIG SPRING     CLOUDY    66  65  94 CALM      30.03F
CARLSBAD       CLEAR     62  45  53 W8        30.00R
DRYDEN           N/A     69  66  90 S9        29.98R
FORT STOCKTON  CLOUDY    67  60  78 S9        29.99S
GUAD PASS      CLOUDY    66  38  35 N10       30.13R
HOBBS          CLEAR     61  61 100 E5        30.05R
MARFA          CLOUDY   N/A N/A N/A S5        30.12S
MIDLAND AIRPK  DRIZZLE   67  64  89 SE8       30.02R
MIDLAND INTL   CLOUDY    67  64  90 SE5       30.01R
ODESSA         CLOUDY    68  63  84 CALM      30.03R
PECOS          CLOUDY    67  58  72 SE5       29.98R
PRESIDIO       CLOUDY    73  62  68 N5        29.99R
SEMINOLE       CLOUDY   N/A N/A N/A CALM      30.04R
SNYDER           N/A     67  66  97 CALM      30.04R
WINK           CLEAR     66  60  81 E7        29.99R
$$
...OTHER STATIONS IN TEXAS...

CITY           SKY/WX    TMP DP  RH WIND       PRES   REMARKS
ABILENE        TSTM      67  66  97 CALM      30.01F
AMARILLO       FOG       61  60  97 SE9       30.07R VSB 1/4
AUSTIN         MOCLDY    75  74  96 CALM      29.97R
BROWNSVILLE    PTCLDY    82  75  79 S9        29.89F
CORPUS CHRISTI PTCLDY    79  76  90 E6        29.89S
DALLAS FTW     MOCLDY    77  71  82 S7        29.96F
DEL RIO        LGT RAIN  71  68  90 NW3       29.92F FOG
EL PASO        PTCLDY    65  40  39 E3        30.02S
HOUSTON INT    PTCLDY    76  75  97 SE3       29.97R
LUBBOCK        CLOUDY    66  65  96 SE8       30.03S
SAN ANGELO     TSTM      68  66  93 S12       30.06R FOG
SAN ANTONIO    CLOUDY    78  75  90 E6        29.94F
WACO           PTCLDY    76  74  93 SE9       29.97R
WICHITA FALLS  NOT AVBL
$$
...OTHER LOCATIONS IN NEW MEXICO...

CITY           SKY/WX    TMP DP  RH WIND       PRES   REMARKS
ALAMAGORDO     CLEAR     63  36  36 NW9G16    30.06R
ALBUQUERQUE    CLEAR     57  35  43 NE3       30.21R
CANNON AFB     CLOUDY    58  35  42 N10       30.07R
CLOVIS         CLOUDY    52  36  54 CALM      30.09R
HOLLOMAN AFB   CLEAR     63  34  34 N13       30.04R
ROSWELL        PTCLDY    63  31  30 NW12      30.04R
RUIDOSO        CLEAR     52  27  37 NW10G17   30.23S
SANTA FE       CLEAR     50  30  46 N18       30.23S
TRUTH OR CONSE CLEAR     61  30  31 NE10      30.13R
TUCUMCARI      CLEAR     51  32  48 N6        30.08R
$$

USA.gov is the U.S. government's official web portal to all federal, state and local government web resources and services.